When you browse on this site, cookies collect data to enhance your experience and personalize the content and advertising you see.
Visit our Privacy Policy to learn more. By continuing to use the site, you agree to this use of cookies and data.
  • In Deutschland
  • Länderverzeichnis
  • Für 7 Tage
  • Wassertemperatur
  • Satellitenkarten
  • Wetterkarte
  • Widgets
  • user-avatar
    Anmelden

    Stündliche Wetter Elbasan

    Heute, 19 Juni, Mittwoch

    Zeit Temperatur Niederschläge Wind Luftdruck Luftfeuchtigkeit
    00:00 +21°C° 0 mm 1 m/S 734 mmHg 75%
    01:00 +21°C° 0 mm 1 m/S 734 mmHg 74%
    02:00 +21°C° 0 mm 1 m/S 734 mmHg 72%
    03:00 +21°C° 0 mm 1 m/S 734 mmHg 70%
    04:00 +20°C° 0 mm 1 m/S 733 mmHg 69%
    05:00 +22°C° 0 mm 1 m/S 734 mmHg 65%
    06:00 +22°C° 0 mm 0 m/S 734 mmHg 61%
    07:00 +24°C° 0 mm 0 m/S 734 mmHg 57%
    08:00 +25°C° 0 mm 0 m/S 734 mmHg 54%
    09:00 +28°C° 0 mm 1 m/S 734 mmHg 51%
    10:00 +29°C° 0 mm 1 m/S 734 mmHg 48%
    11:00 +30°C° 0 mm 2 m/S 734 mmHg 47%
    12:00 +30°C° 0 mm 2 m/S 734 mmHg 46%
    13:00 +31°C° 0 mm 3 m/S 734 mmHg 45%
    14:00 +30°C° 0.1 mm 3 m/S 733 mmHg 49%
    15:00 +29°C° 0.1 mm 3 m/S 733 mmHg 54%
    16:00 +29°C° 0.1 mm 3 m/S 732 mmHg 58%
    17:00 +27°C° 0 mm 2 m/S 733 mmHg 65%
    18:00 +25°C° 0 mm 2 m/S 733 mmHg 73%
    19:00 +24°C° 0 mm 1 m/S 733 mmHg 80%
    20:00 +23°C° 0 mm 1 m/S 733 mmHg 82%
    21:00 +22°C° 0 mm 1 m/S 733 mmHg 83%
    22:00 +19°C° 0 mm 0 m/S 733 mmHg 85%
    23:00 +19°C° 0 mm 0 m/S 733 mmHg 85%

    Morgen, 20 Juni, Donnerstag

    Zeit Temperatur Niederschläge Wind Luftdruck Luftfeuchtigkeit
    00:00 +19°C° 0 mm 0 m/S 733 mmHg 85%
    01:00 +18°C° 0 mm 0 m/S 733 mmHg 85%
    02:00 +18°C° 0 mm 0 m/S 733 mmHg 85%
    03:00 +20°C° 0 mm 1 m/S 733 mmHg 84%
    04:00 +20°C° 0 mm 1 m/S 732 mmHg 84%
    05:00 +21°C° 0 mm 1 m/S 733 mmHg 78%
    06:00 +21°C° 0 mm 0 m/S 733 mmHg 71%
    07:00 +23°C° 0 mm 0 m/S 733 mmHg 65%
    08:00 +26°C° 0 mm 1 m/S 733 mmHg 60%
    09:00 +27°C° 0 mm 1 m/S 733 mmHg 55%
    10:00 +28°C° 0 mm 2 m/S 733 mmHg 50%
    11:00 +29°C° 0 mm 2 m/S 733 mmHg 50%
    12:00 +29°C° 0 mm 3 m/S 733 mmHg 50%
    13:00 +30°C° 0 mm 3 m/S 733 mmHg 49%
    14:00 +29°C° 0 mm 3 m/S 733 mmHg 53%
    15:00 +29°C° 0 mm 3 m/S 733 mmHg 56%
    16:00 +28°C° 0 mm 3 m/S 733 mmHg 59%
    17:00 +27°C° 0 mm 2 m/S 733 mmHg 67%
    18:00 +25°C° 0 mm 1 m/S 733 mmHg 74%
    19:00 +21°C° 0 mm 0 m/S 733 mmHg 81%
    20:00 +23°C° 0 mm 1 m/S 733 mmHg 83%
    21:00 +22°C° 0 mm 1 m/S 733 mmHg 84%
    22:00 +21°C° 0 mm 1 m/S 733 mmHg 86%
    23:00 +21°C° 0 mm 1 m/S 733 mmHg 85%

    übermorgen, 21 Juni, Freitag

    Zeit Temperatur Niederschläge Wind Luftdruck Luftfeuchtigkeit
    00:00 +21°C° 0 mm 1 m/S 733 mmHg 83%
    01:00 +21°C° 0 mm 1 m/S 733 mmHg 82%
    02:00 +20°C° 0 mm 1 m/S 733 mmHg 81%
    03:00 +20°C° 0 mm 1 m/S 733 mmHg 80%
    04:00 +18°C° 0 mm 0 m/S 733 mmHg 79%
    05:00 +20°C° 0 mm 0 m/S 734 mmHg 75%
    06:00 +21°C° 0 mm 0 m/S 734 mmHg 70%
    07:00 +23°C° 0 mm 0 m/S 734 mmHg 65%
    08:00 +25°C° 0 mm 0 m/S 734 mmHg 61%
    09:00 +28°C° 0 mm 1 m/S 734 mmHg 57%
    10:00 +30°C° 0 mm 1 m/S 734 mmHg 53%
    11:00 +30°C° 0 mm 2 m/S 734 mmHg 52%
    12:00 +31°C° 0 mm 2 m/S 734 mmHg 51%
    13:00 +31°C° 0 mm 3 m/S 734 mmHg 51%
    14:00 +31°C° 0.1 mm 3 m/S 734 mmHg 54%
    15:00 +30°C° 0.1 mm 2 m/S 734 mmHg 57%
    16:00 +30°C° 0.1 mm 2 m/S 734 mmHg 60%
    17:00 +28°C° 0 mm 2 m/S 734 mmHg 66%
    18:00 +26°C° 0 mm 1 m/S 734 mmHg 72%
    19:00 +25°C° 0 mm 1 m/S 734 mmHg 79%
    20:00 +24°C° 0 mm 1 m/S 734 mmHg 80%
    21:00 +23°C° 0 mm 1 m/S 734 mmHg 82%
    22:00 +22°C° 0 mm 1 m/S 735 mmHg 84%
    23:00 +22°C° 0 mm 1 m/S 735 mmHg 84%

    22 Juni, Samstag

    Zeit Temperatur Niederschläge Wind Luftdruck Luftfeuchtigkeit
    00:00 +22°C° 0 mm 1 m/S 734 mmHg 83%
    01:00 +22°C° 0 mm 1 m/S 734 mmHg 82%
    02:00 +21°C° 0 mm 1 m/S 734 mmHg 80%
    03:00 +21°C° 0 mm 1 m/S 734 mmHg 79%
    04:00 +21°C° 0 mm 1 m/S 734 mmHg 77%
    05:00 +23°C° 0 mm 1 m/S 734 mmHg 71%
    06:00 +23°C° 0 mm 0 m/S 735 mmHg 65%
    07:00 +25°C° 0 mm 0 m/S 735 mmHg 59%
    08:00 +26°C° 0 mm 0 m/S 735 mmHg 54%
    09:00 +30°C° 0 mm 1 m/S 735 mmHg 49%
    10:00 +31°C° 0 mm 1 m/S 736 mmHg 44%
    11:00 +32°C° 0 mm 1 m/S 735 mmHg 41%
    12:00 +34°C° 0 mm 2 m/S 735 mmHg 39%
    13:00 +35°C° 0 mm 2 m/S 735 mmHg 36%
    14:00 +34°C° 0 mm 2 m/S 735 mmHg 37%
    15:00 +34°C° 0 mm 2 m/S 735 mmHg 39%
    16:00 +34°C° 0 mm 3 m/S 734 mmHg 41%
    17:00 +31°C° 0 mm 2 m/S 734 mmHg 50%
    18:00 +29°C° 0 mm 1 m/S 734 mmHg 60%
    19:00 +24°C° 0 mm 0 m/S 734 mmHg 70%
    20:00 +26°C° 0 mm 1 m/S 734 mmHg 69%
    21:00 +25°C° 0 mm 1 m/S 734 mmHg 68%
    22:00 +25°C° 0 mm 1 m/S 735 mmHg 67%
    23:00 +25°C° 0 mm 1 m/S 735 mmHg 64%

    23 Juni, Sonntag

    Zeit Temperatur Niederschläge Wind Luftdruck Luftfeuchtigkeit
    00:00 +24°C° 0 mm 1 m/S 734 mmHg 61%
    01:00 +24°C° 0 mm 1 m/S 734 mmHg 59%
    02:00 +24°C° 0 mm 1 m/S 734 mmHg 57%
    03:00 +24°C° 0 mm 1 m/S 734 mmHg 55%
    04:00 +24°C° 0 mm 1 m/S 734 mmHg 54%
    05:00 +26°C° 0 mm 1 m/S 734 mmHg 51%
    06:00 +25°C° 0 mm 0 m/S 735 mmHg 49%
    07:00 +27°C° 0 mm 0 m/S 735 mmHg 46%
    08:00 +30°C° 0 mm 1 m/S 735 mmHg 44%
    09:00 +31°C° 0 mm 1 m/S 735 mmHg 43%
    10:00 +32°C° 0 mm 2 m/S 736 mmHg 41%
    11:00 +32°C° 0 mm 2 m/S 735 mmHg 41%
    12:00 +34°C° 0 mm 2 m/S 735 mmHg 41%
    13:00 +34°C° 0 mm 3 m/S 735 mmHg 41%
    14:00 +34°C° 0 mm 3 m/S 735 mmHg 44%
    15:00 +32°C° 0 mm 2 m/S 735 mmHg 47%
    16:00 +31°C° 0 mm 2 m/S 735 mmHg 50%
    17:00 +30°C° 0 mm 2 m/S 735 mmHg 59%
    18:00 +28°C° 0 mm 1 m/S 735 mmHg 67%
    19:00 +24°C° 0 mm 0 m/S 735 mmHg 76%
    20:00 +25°C° 0 mm 1 m/S 735 mmHg 77%
    21:00 +24°C° 0 mm 1 m/S 735 mmHg 78%
    22:00 +24°C° 0 mm 1 m/S 736 mmHg 79%
    23:00 +23°C° 0 mm 1 m/S 736 mmHg 78%

    24 Juni, Montag

    Zeit Temperatur Niederschläge Wind Luftdruck Luftfeuchtigkeit
    00:00 +23°C° 0 mm 1 m/S 736 mmHg 76%
    01:00 +23°C° 0 mm 1 m/S 736 mmHg 75%
    02:00 +23°C° 0 mm 1 m/S 736 mmHg 75%
    03:00 +22°C° 0 mm 1 m/S 736 mmHg 74%
    04:00 +22°C° 0 mm 1 m/S 736 mmHg 74%
    05:00 +24°C° 0 mm 1 m/S 736 mmHg 70%
    06:00 +24°C° 0 mm 0 m/S 736 mmHg 65%
    07:00 +26°C° 0 mm 0 m/S 737 mmHg 61%
    08:00 +29°C° 0 mm 1 m/S 737 mmHg 57%
    09:00 +31°C° 0 mm 1 m/S 737 mmHg 53%
    10:00 +32°C° 0 mm 1 m/S 737 mmHg 49%
    11:00 +34°C° 0 mm 2 m/S 737 mmHg 48%
    12:00 +34°C° 0 mm 2 m/S 736 mmHg 47%
    13:00 +35°C° 0 mm 3 m/S 736 mmHg 46%
    14:00 +34°C° 0.1 mm 3 m/S 736 mmHg 49%
    15:00 +34°C° 0.1 mm 3 m/S 736 mmHg 53%
    16:00 +33°C° 0.1 mm 3 m/S 736 mmHg 56%
    17:00 +30°C° 0.2 mm 2 m/S 736 mmHg 62%
    18:00 +29°C° 0.2 mm 2 m/S 736 mmHg 68%
    19:00 +27°C° 0.2 mm 1 m/S 736 mmHg 74%
    20:00 +26°C° 0 mm 1 m/S 736 mmHg 76%
    21:00 +26°C° 0 mm 1 m/S 737 mmHg 77%
    22:00 +25°C° 0 mm 2 m/S 737 mmHg 79%
    23:00 +24°C° 0 mm 2 m/S 737 mmHg 79%
    Mehr zeigen